Tracking 28520 objects as of 1-Mar-2024
HD Live streaming from Space Station
objects crossing your sky now

WESTFORD NEEDLES

Track WESTFORD NEEDLES now!
10-day predictions
WESTFORD NEEDLES is classified as:


NORAD ID: 19051
Int'l Code: 1963-014EA
Perigee: 3,112.7 km
Apogee: 4,161.3 km
Inclination: 87.3 °
Period: 166.1 minutes
Semi major axis: 10008 km
RCS: 0.357 m2 (medium)
Launch date: May 9, 1963
Source: United States (US)
Launch site: AIR FORCE WESTERN TEST RANGE (AFWTR)
Your satellite tracking list
Your tracking list is empty




NASA's NSSDC Master Catalog

Two Line Element Set (TLE):
1 19051U 63014EA  24058.41875501  .00000047  00000-0  16958-1 0  9991
2 19051  87.3027 232.1371 0523886 118.6619 246.7939  8.67123470370488
Source of the keplerian elements: AFSPC